User: anonymous   Login
Location: El Bakhil
(32.7726°N, 5.5387°W)
Time: 22:45:01
(UTC+00:00)
Language:

SL-8 Rocket - Orbit

View from above orbital plane
View from above orbital plane
View from above satellite
View from above satellite

Ground track
Ground track

The orbit data is extracted from the following two-line orbital elements,

1 21088U 91006B   21128.23409888  .00000031  00000-0  15645-4 0  9990
2 21088  82.9459  43.7519 0021476 304.2639 164.9034 13.77163141521182
Epoch (UTC): 08 May 2021 05:37:06
Eccentricity: 0.0021476
inclination: 82.9459°
perigee height: 958 km
apogee height: 990 km
right ascension of ascending node: 43.7519°
argument of perigee: 304.2639°
revolutions per day: 13.77163141
mean anomaly at epoch: 164.9034°
orbit number at epoch: 52118

The dashed part of the orbit path shows where the satellite is in the earth's shadow,  

DLR